Weather in Zavodskoy

Russia / Rostov Oblast     48°24′11″N   40°16′48″E
temp.,
°C
wind,
m/s
gust,
m/s
humid.,
%
clouds,
%
prec.,
mm/h
press.,
hPa
HPBL,
m
13 june, sun
sun1300:00+16sw33880 0.0 101140
03:00+15ssw33924 0.0 101147
06:00+17ssw249036 0.0 1011146
09:00+22sw34714 0.0 1011727
12:00+25wsw345442 0.4 10101850
15:00+26wsw454798 0.4 10102059
18:00+23wsw366536 0.0 1010667
21:00+19sw22764 0.1 101114
14 june, mon
mon1400:00+17ssw2279100 0.0 101212
03:00+16ssw11823 0.0 101211
06:00+18sse11765 0.0 101249
09:00+23se12605 0.0 1013604
12:00+26sse234990 0.1 10132104
15:00+25e1159100 0.1 1013458
18:00+25ene126199 0.0 1012407
21:00+21ene227097 0.0 101214
15 june, tue
tue1500:00+18ese22837 0.0 101227
03:00+17e2393100 0.1 101238
06:00+18ene238929 0.0 1012139
09:00+22ene23710 0.0 1011702
12:00+25ese225664 0.0 10111467
15:00+27s014846 0.1 10091842
18:00+23n226797 0.1 1009209
21:00+21ne117011 0.1 100913
16 june, wed
wed1600:00+19ne11803 0.0 100912
03:00+18ne11870 0.0 100913
06:00+19ne1284100 0.0 101091
09:00+23ne337182 0.0 1010500
12:00+26ene3459100 0.0 10091124
15:00+26e1262100 0.4 1009584
18:00+19nne5995100 18.9 1010359
21:00+18ene249632 18.9 1011110
17 june, thu
thu1700:00+18ese359376 0.1 1011194
03:00+17sse119680 0.1 101233
06:00+18ene11911 0.0 101295
09:00+22ne33757 0.0 1012674
12:00+26ene3463100 0.0 10121257
15:00+25ene5770100 3.1 1011849
18:00+22n41084100 10.5 1010313
21:00+15w7798100 83.4 1011238